Regional Weather Roundup
Issued by NWS

Home | Current Version | Previous Version | Text Only | Print | Product List | Glossary Off
Versions: 1 2 3 4 5 6 7 8 9 10 11 12 13 14 15 16 17 18 19 20 21 22 23 24 25 26 27 28 29 30 31 32 33 34 35 36 37 38 39 40 41 42 43 44 45 46 47 48 49 50

000
ASUS43 KLOT 290108
RWRIL

ILLINOIS REGIONAL WEATHER ROUNDUP
NATIONAL WEATHER SERVICE CHICAGO/ROMEOVILLE IL
800 PM CDT THU JUL 28 2016

NOTE: "FAIR" INDICATES FEW OR NO CLOUDS BELOW 12,000 FEET WITH NO
SIGNIFICANT WEATHER AND/OR OBSTRUCTIONS TO VISIBILITY.

* THESE STATIONS ARE NOT UNDER NWS QUALITY CONTROL. THEY ALSO MAY NOT
  REPORT WEATHER SUCH AS PRECIPITATION OR FOG.

ILZ001-002-007-009-015-016-024-290200-
NORTHWEST ILLINOIS

CITY           SKY/WX    TMP DP  RH WIND       PRES   REMARKS
MOLINE         CLEAR     80  65  59 NW9       29.87F HX  82
STERLING*      CLEAR     74  70  87 NE5       29.88R
SAVANNA*       PTCLDY    75  69  81 NW3       29.88S
$$

ILZ003-004-008-010-011-017-018-290200-
NORTH CENTRAL ILLINOIS

CITY           SKY/WX    TMP DP  RH WIND       PRES   REMARKS
ROCKFORD       PTCLDY    77  68  73 E6        29.91R
FREEPORT*      CLEAR     73  69  88 NE5       29.92R
ROCHELLE*      CLEAR     72  69  92 CALM      29.91R
DE KALB*       PTCLDY    73  70  89 E7        29.92R
$$

ILZ005-006-012>014-019>023-290200-
NORTHEAST ILLINOIS

CITY           SKY/WX    TMP DP  RH WIND       PRES   REMARKS
CHICAGO-OHARE  CLOUDY    72  68  87 N9        29.92R
CHICAGO-MIDWAY CLOUDY    76  71  85 N12       29.90R
AURORA         PTCLDY    75  71  87 NE8       29.91R FOG
LANSING*       MOCLDY    75  70  85 NE5       29.90R
JOLIET*        MOCLDY    75  70  83 NE6       29.91R
WAUKEGAN       MOCLDY    71  68  90 VRB6      29.92R
DUPAGE AIRPORT MOCLDY    74  69  85 NE10      29.91R
KANKAKEE*      PTCLDY    74  68  83 N3        29.89S
WHEELING       CLOUDY    72  68  87 N10       29.93R
MORRIS*        MOCLDY    74  70  86 CALM      29.89R
ROMEOVILLE*    MOCLDY    73  67  81 E6        29.91R
NORTHERLY ISL    N/A     74  70  87 MISG        N/A
$$

LMZ740>746-290200-
SOUTHERN LAKE MICHIGAN

STATION/POSITION SKY/WX   TEMP    WIND        PRES    VSBY  WAVE
                          AIR SEA DIR/SP/G                  HT/PER
                          (F)     (DEG/KT/KT) (MB)    (MI)  (FT/S)
SOUTHERN BUOY              75 76   80/ 14/ 16 1011.9          2/ 6
WILMETTE HARBOR            73 75   30/ 12/ 17   N/A           4/ 4
HARRISON CRIB              76      50/ 12/ 12   N/A
BURNHAM HARBOR             74     350/  8/  9   N/A
CALUMET HARBOR             74                   N/A
BURNS HARBOR               77     360/  7/  9 1012.5R
MICHIGAN CITY              77      90/  8/ 10   N/A
MICHIGAN CITY 6N           77 76   70/  6/  8   N/A           1/ 2
ST. JOSEPH                 74 78   70/ 10/ 12 1011.6R         1
$$

ILZ025>027-034>036-040-047-049-050-058-095>099-290200-
WEST-CENTRAL ILLINOIS

CITY           SKY/WX    TMP DP  RH WIND       PRES   REMARKS
QUINCY         CLEAR     77  69  76 N7        29.91S
GALESBURG*     CLEAR     76  69  77 CALM      29.90S
MACOMB*        CLEAR     75  69  79 NW3       29.93R
JACKSONVILLE*  PTCLDY    79  73  81 CALM      29.90R HX  82
PITTSFIELD*    CLEAR     79  72  77 NW5       29.91S HX  82
$$

ILZ028>032-037-038-041>044-048-051>054-059>061-290200-
CENTRAL ILLINOIS

CITY           SKY/WX    TMP DP  RH WIND       PRES   REMARKS
PONTIAC        CLEAR     75  73  94 CALM      29.89S
BLOOMINGTON    CLOUDY    76  72  87 CALM      29.89F
DECATUR        PTCLDY    79  68  69 CALM      29.88F HX  81
PEORIA         PTCLDY    75  66  73 CALM      29.89S
LACON*         MOCLDY    74  69  85 CALM      29.87S
LINCOLN*       CLEAR     74  72  95 CALM      29.88S
SPRINGFIELD    CLEAR     81  73  76 NW3       29.89R HX  86
TAYLORVILLE    PTCLDY    78  74  87 MISG      29.89S HX  80
$$

ILZ033-039-045-046-055>057-062-063-290200-
EAST-CENTRAL ILLINOIS

CITY           SKY/WX    TMP DP  RH WIND       PRES   REMARKS
CHAMPAIGN      CLEAR     76  73  91 NW3       29.88F
MATTOON        MOCLDY    72  70  93 CALM      29.89S
PARIS*         PTCLDY    78  75  90 CALM      29.89R HX  82
$$

ILZ079-100>102-290200-
SOUTHWEST ILLINOIS

CITY           SKY/WX    TMP DP  RH WIND       PRES   REMARKS
ALTON          MOCLDY    81  72  74 N7        29.90R HX  84
CAHOKIA*       PTCLDY    84  70  62 N6        29.89R HX  88
SPARTA*        MOCLDY    82  75  79 CALM      29.91R HX  88
$$

ILZ064>066-069>071-074>076-080>082-084>086-088>090-092>094-290200-
SOUTH-CENTRAL ILLINOIS

CITY           SKY/WX    TMP DP  RH WIND       PRES   REMARKS
CARBONDALE     MOCLDY    74  66  76 S5        29.90R
CAIRO*         CLOUDY    78  72  83 CALM      29.90R HX  80
EFFINGHAM*     MOCLDY    73  70  88 CALM      29.90F
MARION         PTCLDY    77  72  83 S5        29.90S
MT. VERNON     MOCLDY    75  66  73 MISG      29.92R
CENTRALIA*     CLOUDY    73  72  97 SE3       29.90S
SALEM*         CLOUDY    73  71  92 CALM      29.90S
METROPOLIS*    PTCLDY    79  74  85 CALM      29.91R HX  82
$$

ILZ067-068-072-073-078-083-087-091-290200-
SOUTHEAST ILLINOIS

CITY           SKY/WX    TMP DP  RH WIND       PRES   REMARKS
LAWRENCEVILLE  MOCLDY    74  70  87 SW6       29.89S
FLORA*         CLOUDY    80  75  86 W3        29.90R HX  84
FAIRFIELD*     MOCLDY    74  73  97 CALM      29.89R
HARRISBURG*    CLOUDY    76  74  92 CALM      29.90R
ROBINSON*      PTCLDY    76  72  87 S6        29.89S
CARMI*         MOCLDY    76  72  87 CALM      29.90R
$$

ABBREVIATIONS USED IN REMARKS
   TC - TEMPERATURE IN CELSIUS
  WCI - WIND CHILL INDEX
   HX - HEAT INDEX
  VSB - VISIBILITY
$$





USA.gov is the U.S. government's official web portal to all federal, state and local government web resources and services.